Weather History for KTYQ - February, 2013

Change the Weather History Date:

Wednesday, February 20, 2013

  Actual Average (KEYE) Record (KEYE)
Temperature  
Mean Temperature 18 °F 33 °F  
Max Temperature 25 °F 42 °F 63 °F (2014)
Min Temperature 11 °F 25 °F -7 °F (2015)
Degree Days  
Heating Degree Days 47 32  
Month to date heating degree days 683  
Since 1 July heating degree days 3884  
Cooling Degree Days 0 0  
Month to date cooling degree days 0  
Year to date cooling degree days 0  
Moisture  
Dew Point 9 °F    
Average Humidity 66    
Maximum Humidity 75    
Minimum Humidity 58    
Precipitation  
Precipitation 0.00 in 0.08 in 0.43 in (2014)
Month to date precipitation 1.48  
Year to date precipitation 3.69  
Sea Level Pressure  
Sea Level Pressure 30.26 in    
Wind  
Wind Speed 11 mph (NW)    
Max Wind Speed 15 mph    
Max Gust Speed 25 mph    
Visibility 10 miles    
Events Snow    
T = Trace of Precipitation, MM = Missing Value Source: NWS Daily Summary

Daily Weather History Graph

Daily Weather History Graph

Search for Another Location

Airport or City:

Trip Planner

Search our weather history database for the weather conditions in past years. The results will help you decide how hot, cold, wet, or windy it might be!

Date:

Astronomy

Feb. 20, 2013 Rise Set
Actual Time 7:30 AM EST 6:27 PM EST
Civil Twilight 7:03 AM EST 6:54 PM EST
Nautical Twilight 6:31 AM EST 7:26 PM EST
Astronomical Twilight 6:00 AM EST 7:57 PM EST
Moon 1:47 PM EST (2/20) 3:50 AM EST (2/20)
Length of Visible Light 11h 51m
Length of Day
10h 56m
Waxing Gibbous, 76% of the Moon is Illuminated
Feb 20
Waxing Gibbous
Feb 25
Full
Mar 4
Last Quarter
Mar 11
New
Mar 19
First Quarter

Hourly Weather History & Observations

Time (EST) Temp. Windchill Dew Point Humidity Pressure Visibility Wind Dir Wind Speed Gust Speed Precip Events Conditions
12:15 AM 21.2 °F 7.8 °F 10.6 °F 64% 30.12 in 10.0 mi West 15.0 mph 24.2 mph N/A Snow Light Snow
12:35 AM 20.7 °F 8.8 °F 11.5 °F 68% 30.13 in 7.0 mi WNW 11.5 mph 24.2 mph N/A Snow Light Snow
12:55 AM 19.9 °F 7.3 °F 10.6 °F 67% 30.13 in 10.0 mi NW 12.7 mph 19.6 mph N/A   Overcast
1:15 AM 19.2 °F 5.3 °F 9.5 °F 66% 30.14 in 10.0 mi WNW 15.0 mph 24.2 mph N/A Snow Light Snow
1:35 AM 18.5 °F 5.5 °F 8.6 °F 65% 30.15 in 10.0 mi WNW 12.7 mph 24.2 mph N/A Snow Light Snow
1:55 AM 18.5 °F 4.9 °F 8.4 °F 65% 30.16 in 10.0 mi WNW 13.8 mph 20.7 mph N/A   Overcast
2:15 AM 18.3 °F 4.6 °F 8.8 °F 66% 30.16 in 10.0 mi WNW 13.8 mph 23.0 mph N/A Snow Light Snow
2:35 AM 17.8 °F 4.6 °F 9.1 °F 69% 30.17 in 7.0 mi WNW 12.7 mph 24.2 mph N/A Snow Light Snow
2:55 AM 16.9 °F 2.3 °F 9.3 °F 72% 30.17 in 4.0 mi NW 15.0 mph 19.6 mph N/A Snow Light Snow
3:15 AM 16.5 °F 3.6 °F 7.7 °F 68% 30.18 in 10.0 mi WNW 11.5 mph 18.4 mph N/A   Overcast
3:35 AM 16.2 °F 1.9 °F 6.8 °F 67% 30.18 in 10.0 mi WNW 13.8 mph 25.3 mph N/A   Overcast
3:55 AM 15.8 °F 1.4 °F 7.5 °F 70% 30.19 in 10.0 mi WNW 13.8 mph 19.6 mph N/A Snow Light Snow
4:15 AM 15.4 °F 1.6 °F 6.8 °F 69% 30.19 in 10.0 mi WNW 12.7 mph 20.7 mph N/A   Overcast
4:35 AM 14.0 °F 1.2 °F 5.0 °F 67% 30.20 in 10.0 mi WNW 10.4 mph 18.4 mph N/A   Overcast
4:55 AM 14.0 °F 1.2 °F 5.4 °F 69% 30.20 in 10.0 mi West 10.4 mph 16.1 mph N/A   Overcast
5:15 AM 13.8 °F 0.2 °F 5.9 °F 71% 30.21 in 7.0 mi WNW 11.5 mph 19.6 mph N/A Snow Light Snow
5:35 AM 13.3 °F -2.4 °F 5.2 °F 70% 30.21 in 10.0 mi West 15.0 mph 20.7 mph N/A   Overcast
5:55 AM 13.1 °F 0.1 °F 5.5 °F 72% 30.23 in 10.0 mi West 10.4 mph - N/A   Mostly Cloudy
6:15 AM 13.1 °F 0.9 °F 5.4 °F 71% 30.23 in 10.0 mi WNW 9.2 mph 18.4 mph N/A   Overcast
6:35 AM 12.4 °F -1.6 °F 4.1 °F 69% 30.23 in 10.0 mi WNW 11.5 mph - N/A   Scattered Clouds
6:55 AM 12.2 °F -1.0 °F 3.9 °F 69% 30.23 in 10.0 mi WNW 10.4 mph 17.3 mph N/A   Mostly Cloudy
7:15 AM 11.3 °F -2.2 °F 3.0 °F 69% 30.24 in 10.0 mi WNW 10.4 mph - N/A   Scattered Clouds
7:35 AM 11.1 °F -0.6 °F 3.0 °F 70% 30.24 in 10.0 mi NW 8.1 mph - N/A   Scattered Clouds
8:15 AM 11.1 °F -3.9 °F 3.4 °F 71% 30.26 in 10.0 mi NW 12.7 mph - N/A   Scattered Clouds
8:35 AM 11.1 °F -1.6 °F 3.2 °F 70% 30.28 in 10.0 mi WNW 9.2 mph 16.1 mph N/A   Scattered Clouds
8:55 AM 12.0 °F -1.3 °F 3.6 °F 69% 30.28 in 10.0 mi NW 10.4 mph - N/A   Scattered Clouds
9:15 AM 12.7 °F 2.4 °F 3.9 °F 68% 30.29 in 10.0 mi WNW 6.9 mph - N/A   Scattered Clouds
9:35 AM 13.3 °F 2.0 °F 4.3 °F 67% 30.29 in 10.0 mi WNW 8.1 mph - N/A   Scattered Clouds
9:55 AM 13.8 °F 2.7 °F 4.8 °F 67% 30.28 in 10.0 mi West 8.1 mph - N/A   Clear
10:15 AM 14.7 °F 2.9 °F 5.2 °F 66% 30.28 in 10.0 mi NW 9.2 mph - N/A   Clear
10:35 AM 15.4 °F 5.6 °F 5.2 °F 64% 30.28 in 10.0 mi WNW 6.9 mph - N/A   Clear
10:55 AM 17.1 °F 6.6 °F 6.8 °F 64% 30.29 in 10.0 mi WNW 8.1 mph - N/A   Clear
11:15 AM 17.2 °F 7.8 °F 7.0 °F 64% 30.30 in 10.0 mi WNW 6.9 mph - N/A   Clear
11:35 AM 18.3 °F 6.6 °F 7.3 °F 62% 30.31 in 10.0 mi West 10.4 mph - N/A   Scattered Clouds
11:55 AM 19.2 °F 11.3 °F 7.9 °F 61% 30.30 in 10.0 mi WNW 5.8 mph - N/A   Scattered Clouds
12:15 PM 19.9 °F 10.1 °F 8.4 °F 61% 30.31 in 10.0 mi West 8.1 mph - N/A   Scattered Clouds
12:35 PM 20.8 °F 9.7 °F 9.1 °F 61% 30.30 in 10.0 mi WNW 10.4 mph - N/A   Clear
12:55 PM 21.2 °F 11.7 °F 9.5 °F 61% 30.29 in 10.0 mi West 8.1 mph 16.1 mph N/A   Clear
1:15 PM 22.3 °F 13.0 °F 10.6 °F 61% 30.30 in 10.0 mi West 8.1 mph - N/A   Clear
1:35 PM 23.2 °F 12.0 °F 11.8 °F 62% 30.29 in 10.0 mi West 11.5 mph 17.3 mph N/A   Clear
1:55 PM 23.5 °F 13.0 °F 11.3 °F 60% 30.28 in 10.0 mi WSW 10.4 mph 16.1 mph N/A   Clear
2:15 PM 24.1 °F 13.7 °F 11.1 °F 58% 30.28 in 10.0 mi WNW 10.4 mph 18.4 mph N/A   Clear
2:35 PM 25.0 °F 14.2 °F 12.6 °F 59% 30.28 in 10.0 mi WNW 11.5 mph 17.3 mph N/A   Scattered Clouds
3:15 PM 25.2 °F 13.9 °F 13.1 °F 60% 30.28 in 10.0 mi NW 12.7 mph - N/A   Scattered Clouds
3:35 PM 24.8 °F 13.4 °F 12.2 °F 59% 30.28 in 10.0 mi WNW 12.7 mph 18.4 mph N/A   Mostly Cloudy
3:55 PM 25.2 °F 15.1 °F 12.9 °F 60% 30.28 in 10.0 mi WNW 10.4 mph 18.4 mph N/A   Mostly Cloudy
4:15 PM 25.2 °F 15.1 °F 13.3 °F 61% 30.29 in 10.0 mi NW 10.4 mph 17.3 mph N/A   Mostly Cloudy
4:35 PM 25.3 °F 14.7 °F 13.8 °F 62% 30.28 in 10.0 mi NNW 11.5 mph - N/A   Mostly Cloudy
4:55 PM 24.8 °F 14.0 °F 13.6 °F 63% 30.27 in 10.0 mi NNW 11.5 mph 17.3 mph N/A   Overcast
5:15 PM 24.8 °F 16.1 °F 13.6 °F 63% 30.28 in 10.0 mi WNW 8.1 mph - N/A   Mostly Cloudy
5:35 PM 24.3 °F 14.6 °F 13.3 °F 63% 30.28 in 10.0 mi NNW 9.2 mph - N/A   Overcast
5:55 PM 24.3 °F 13.3 °F 14.0 °F 65% 30.28 in 10.0 mi NW 11.5 mph - N/A   Overcast
6:15 PM 23.9 °F 15.8 °F 14.2 °F 66% 30.29 in 10.0 mi NW 6.9 mph - N/A   Overcast
6:35 PM 23.7 °F 13.3 °F 14.5 °F 68% 30.29 in 10.0 mi North 10.4 mph - N/A   Overcast
6:55 PM 23.4 °F 14.3 °F 13.6 °F 66% 30.30 in 10.0 mi NNW 8.1 mph - N/A   Overcast
7:15 PM 23.4 °F 13.5 °F 14.0 °F 67% 30.30 in 10.0 mi North 9.2 mph - N/A   Overcast
7:35 PM 23.4 °F 16.2 °F 14.4 °F 68% 30.31 in 10.0 mi North 5.8 mph - N/A   Overcast
8:15 PM 23.0 °F 13.9 °F 13.8 °F 68% 30.31 in 10.0 mi North 8.1 mph - N/A   Overcast
8:35 PM 22.8 °F 15.5 °F 13.6 °F 68% 30.30 in 10.0 mi NNW 5.8 mph - N/A   Overcast
8:55 PM 22.6 °F 15.3 °F 13.1 °F 67% 30.29 in 10.0 mi North 5.8 mph - N/A   Overcast
9:15 PM 22.6 °F 13.4 °F 13.1 °F 67% 30.30 in 10.0 mi North 8.1 mph - N/A   Overcast
9:35 PM 22.5 °F 16.3 °F 13.1 °F 67% 30.30 in 10.0 mi North 4.6 mph - N/A   Mostly Cloudy
9:55 PM 22.1 °F 14.7 °F 13.5 °F 69% 30.29 in 10.0 mi NNE 5.8 mph - N/A   Scattered Clouds
10:15 PM 21.9 °F 15.7 °F 14.0 °F 72% 30.29 in 10.0 mi NNE 4.6 mph - N/A   Mostly Cloudy
10:35 PM 21.6 °F 16.8 °F 13.6 °F 72% 30.30 in 10.0 mi NNE 3.5 mph - N/A   Scattered Clouds
10:55 PM 21.0 °F 11.4 °F 12.9 °F 71% 30.31 in 10.0 mi NE 8.1 mph - N/A   Clear
11:35 PM 19.9 °F 14.9 °F 12.7 °F 74% 30.31 in 10.0 mi NNE 3.5 mph - N/A   Clear
11:55 PM 19.2 °F - 12.6 °F 75% 30.31 in 10.0 mi Calm Calm - N/A   Clear